| time (UTC) | temp F | wind direction | speed knots | gust knots | rain 1hr in | rain 24hr in | rain mn in | humidity % | barometer mb |
| 20260502200034 | 62 | 217 | 0.9 | 3.5 | 0.00 | 0.00 | 0.00 | 58 | 1009.7 |
| 20260502194517 | 63 | 210 | 0.0 | 2.6 | 0.00 | 0.00 | 0.00 | 57 | 1009.8 |
| 20260502193022 | 64 | 228 | 0.0 | 1.7 | 0.00 | 0.00 | 0.00 | 56 | 1009.9 |
| 20260502191517 | 64 | 216 | 0.0 | 4.3 | 0.00 | 0.00 | 0.00 | 55 | 1009.9 |
| 20260502190016 | 65 | 187 | 0.9 | 6.1 | 0.00 | 0.00 | 0.00 | 54 | 1009.9 |
| 20260502184520 | 66 | 241 | 0.9 | 7.0 | 0.00 | 0.00 | 0.00 | 52 | 1009.7 |
| 20260502183016 | 66 | 216 | 0.9 | 5.2 | 0.00 | 0.00 | 0.00 | 51 | 1009.7 |
| 20260502181522 | 67 | 253 | 0.9 | 7.0 | 0.00 | 0.00 | 0.00 | 50 | 1009.8 |
| 20260502163010 | 71 | 268 | 0.9 | 12.2 | 0.00 | 0.00 | 0.00 | 39 | 1009.7 |
| 20260502161510 | 72 | 289 | 0.9 | 10.4 | 0.00 | 0.00 | 0.00 | 38 | 1009.8 |
| 20260502151506 | 73 | 261 | 2.6 | 13.0 | 0.00 | 0.00 | 0.00 | 34 | 1010.4 |
| 20260502123043 | 72 | 222 | 1.7 | 13.9 | 0.00 | 0.00 | 0.00 | 39 | 1012.2 |
| 20260502121541 | 72 | 256 | 5.2 | 12.2 | 0.00 | 0.00 | 0.00 | 40 | 1012.4 |
| 20260502114539 | 72 | 202 | 2.6 | 13.9 | 0.00 | 0.00 | 0.00 | 40 | 1012.7 |
| 20260502113041 | 72 | 299 | 1.7 | 12.2 | 0.00 | 0.00 | 0.00 | 42 | 1012.9 |
| 20260502111532 | 71 | 266 | 5.2 | 8.7 | 0.00 | 0.00 | 0.00 | 43 | 1013.1 |
| 20260502110032 | 70 | 196 | 1.7 | 14.8 | 0.00 | 0.00 | 0.00 | 43 | 1013.2 |
| 20260502104527 | 70 | 274 | 1.7 | 11.3 | 0.00 | 0.00 | 0.00 | 43 | 1013.4 |
| 20260502103053 | 70 | 272 | 1.7 | 13.9 | 0.00 | 0.00 | 0.00 | 43 | 1013.8 |
| 20260502101521 | 70 | 214 | 1.7 | 17.4 | 0.00 | 0.00 | 0.00 | 44 | 1014.0 |
| 20260502091509 | 68 | 226 | 1.7 | 10.4 | 0.00 | 0.00 | 0.00 | 46 | 1014.6 |
| 20260502071536 | 59 | 231 | 1.7 | 9.6 | 0.00 | 0.00 | 0.00 | 62 | 1016.0 |
| 20260502070031 | 59 | 191 | 1.7 | 9.6 | 0.00 | 0.00 | 0.00 | 62 | 1016.0 |
| 20260502064526 | 58 | 226 | 0.9 | 10.4 | 0.00 | 0.00 | 0.00 | 65 | 1016.3 |
| 20260502063022 | 57 | 232 | 2.6 | 6.1 | 0.00 | 0.00 | 0.00 | 64 | 1016.4 |
| 20260502061518 | 56 | 212 | 1.7 | 10.4 | 0.00 | 0.00 | 0.00 | 66 | 1016.5 |
| 20260502060014 | 55 | 193 | 0.9 | 8.7 | 0.00 | 0.00 | 0.00 | 68 | 1016.7 |
| 20260502054511 | 54 | 206 | 0.9 | 6.1 | 0.00 | 0.00 | 0.00 | 69 | 1016.8 |
| 20260502053004 | 52 | 249 | 1.7 | 8.7 | 0.00 | 0.00 | 0.00 | 70 | 1016.9 |
| 20260502051501 | 52 | 203 | 2.6 | 7.8 | 0.00 | 0.00 | 0.00 | 71 | 1017.2 |
| 20260502050058 | 51 | 174 | 3.5 | 7.8 | 0.00 | 0.00 | 0.00 | 72 | 1017.3 |
| 20260502044555 | 50 | 210 | 2.6 | 7.8 | 0.00 | 0.00 | 0.00 | 73 | 1017.4 |
| 20260502043100 | 50 | 187 | 2.6 | 7.8 | 0.00 | 0.00 | 0.00 | 74 | 1017.6 |
| 20260502041549 | 49 | 218 | 2.6 | 7.8 | 0.00 | 0.00 | 0.00 | 74 | 1017.8 |
| 20260502040050 | 48 | 197 | 2.6 | 7.8 | 0.00 | 0.00 | 0.00 | 75 | 1017.9 |
| 20260502034542 | 49 | 249 | 3.5 | 7.8 | 0.00 | 0.00 | 0.00 | 74 | 1018.0 |
| 20260502033043 | 49 | 218 | 1.7 | 8.7 | 0.00 | 0.00 | 0.00 | 74 | 1018.1 |
| 20260502031537 | 49 | 189 | 5.2 | 13.0 | 0.00 | 0.00 | 0.00 | 74 | 1018.1 |
| 20260502030042 | 49 | 203 | 3.5 | 7.8 | 0.00 | 0.00 | 0.00 | 73 | 1018.3 |
| 20260502024532 | 49 | 204 | 2.6 | 6.1 | 0.00 | 0.00 | 0.00 | 73 | 1018.5 |
| 20260502023029 | 49 | 192 | 0.9 | 5.2 | 0.00 | 0.00 | 0.00 | 72 | 1018.6 |
| 20260502021526 | 50 | 210 | 0.9 | 7.0 | 0.00 | 0.00 | 0.00 | 70 | 1018.7 |
| 20260502020024 | 50 | 208 | 0.9 | 3.5 | 0.00 | 0.00 | 0.00 | 70 | 1018.8 |
| 20260502014520 | 50 | 209 | 2.6 | 7.0 | 0.00 | 0.00 | 0.00 | 68 | 1019.0 |
| 20260502013018 | 51 | 195 | 2.6 | 8.7 | 0.00 | 0.00 | 0.00 | 67 | 1019.1 |
| 20260502011516 | 51 | 211 | 0.9 | 5.2 | 0.00 | 0.00 | 0.00 | 66 | 1019.2 |
| 20260502010015 | 51 | 194 | 0.9 | 9.6 | 0.00 | 0.00 | 0.00 | 65 | 1019.4 |
| 20260502004511 | 51 | 190 | 0.9 | 7.0 | 0.00 | 0.00 | 0.00 | 65 | 1019.5 |
| 20260502003009 | 51 | 204 | 0.9 | 6.1 | 0.00 | 0.00 | 0.00 | 64 | 1019.6 |
| 20260502001506 | 52 | 226 | 1.7 | 6.1 | 0.00 | 0.00 | 0.00 | 63 | 1019.6 |
| 20260502000005 | 52 | 212 | 0.9 | 4.3 | 0.00 | 0.00 | 0.00 | 63 | 1019.8 |
| 20260501234502 | 52 | 210 | 0.9 | 7.8 | 0.00 | 0.00 | 0.00 | 63 | 1019.9 |
| 20260501233103 | 52 | 196 | 0.9 | 6.1 | 0.00 | 0.00 | 0.00 | 63 | 1020.1 |
| 20260501231558 | 52 | 230 | 0.0 | 6.1 | 0.00 | 0.00 | 0.00 | 62 | 1020.3 |
| 20260501230059 | 52 | 213 | 0.9 | 7.0 | 0.00 | 0.00 | 0.00 | 62 | 1020.4 |
| 20260501224554 | 53 | 222 | 0.9 | 6.1 | 0.00 | 0.00 | 0.00 | 61 | 1020.4 |
| 20260501223102 | 53 | 171 | 0.9 | 5.2 | 0.00 | 0.00 | 0.00 | 61 | 1020.6 |
| 20260501221552 | 53 | 221 | 0.9 | 5.2 | 0.00 | 0.00 | 0.00 | 61 | 1020.7 |
| 20260501220049 | 53 | 210 | 0.9 | 5.2 | 0.00 | 0.00 | 0.00 | 61 | 1020.7 |
| 20260501214546 | 53 | 202 | 0.9 | 3.5 | 0.00 | 0.00 | 0.00 | 61 | 1020.8 |
| 20260501213046 | 53 | 211 | 0.9 | 5.2 | 0.00 | 0.00 | 0.00 | 61 | 1021.0 |
| 20260501211554 | 54 | 204 | 0.9 | 6.1 | 0.00 | 0.00 | 0.00 | 60 | 1021.1 |
| 20260501210044 | 55 | 223 | 0.0 | 4.3 | 0.00 | 0.00 | 0.00 | 59 | 1021.0 |
| 20260501204553 | 55 | 222 | 0.9 | 7.0 | 0.00 | 0.00 | 0.00 | 58 | 1021.2 |
| 20260501203054 | 56 | 222 | 0.9 | 3.5 | 0.00 | 0.00 | 0.00 | 57 | 1021.4 |
| 20260501201541 | 56 | 218 | 2.6 | 5.2 | 0.00 | 0.00 | 0.00 | 56 | 1021.4 |